TKSAT-1 (TUPAC KATARI)

Last updated on Sun Oct 06 2024 00:02:40 GMT+0000 (Coordinated Universal Time)

1 39481U 13075A 24279.52360395 -.00000185 00000+0 00000+0 0 9991 2 39481 0.0557 51.2568 0002326 137.4378 287.3062 1.00273318 39383
UTC large
Height (km)
Speed (km/s)
/
Latitude / Longitude
Inclination (degrees)
Orbital Period (minutes)
Azimuth
Elevation
Range (km)
Doppler Factor

Next 0 passes for location: London (51.5072 / 0.1276)

Sorry there are no passes over London.